Miscellaneous Local Product
Issued by NWS North Platte, NE

Home | Current Version | Previous Version | Graphics & Text | Print | Product List | Glossary On
Versions: 1 2 3 4 5 6 7 8 9 10 11 12 13 14 15 16 17 18 19 20 21 22 23 24 25 26 27 28 29 30 31 32 33 34 35 36 37 38 39 40 41 42 43 44 45 46 47 48 49 50
000
AXUS43 KLBF 112110
MISLBF


WESTERN AND NORTH CENTRAL NEBRASKA HOURLY WEATHER ROUNDUP
NATIONAL WEATHER SERVICE NORTH PLATTE NE
300 PM CST MON DEC 11 2017

NOTE: "FAIR" INDICATES FEW OR NO CLOUDS BELOW 12,000 FEET WITH NO
SIGNIFICANT WEATHER AND/OR OBSTRUCTIONS TO VISIBILITY.

NOTE: STATIONS NOT REPORTING VARIABLES SUCH AS SKY/WEATHER OR
PRESSURE ARE PROVIDED BY RAWS AND APRS NETWORKS AND ARE NOT UNDER
NATIONAL WEATHER SERVICE QUALITY CONTROL.

...OBSERVATIONS IN AND NEAR THE EASTERN PANHANDLE OF NEBRASKA...

CITY           SKY/WX    TMP DP  RH WIND       PRES   REMARKS
PINE RIDGE     CLOUDY    42  24  49 N24G39    30.30F
GORDON         MOCLDY    41  24  50 N28G37    30.27S
CHADRON        MOSUNNY   47  14  26 NW21G29   30.33R
ALLIANCE       SUNNY     49  10  20 NW25G32   30.29R
SIDNEY         SUNNY     53  10  18 N32G41    30.31R
CRESCENT LAKE    N/A     45  15  29 N18G29      N/A
$$

...OBSERVATIONS IN NORTHERN NEBRASKA AND FAR SOUTHERN SOUTH DAKOTA...

CITY           SKY/WX    TMP DP  RH WIND       PRES   REMARKS
WINNER         CLOUDY    40  32  73 NW25G35   30.26R WCI  29
VALENTINE      LGT RAIN  40  29  64 NW16      30.27R WCI  31
THEDFORD       CLOUDY    43  28  56 N22G38    30.26R
AINSWORTH      CLOUDY    38  30  72 N24G32    30.24R WCI  27
O`NEILL        CLOUDY    38  33  82 N26G44    30.20R WCI  27
ORD            CLOUDY    41  28  60 N30G40    30.19R
BROKEN BOW     CLOUDY    43  28  55 N29G37    30.22R
HALSEY           N/A     41  26  55 NW13G29     N/A
BUTTE            N/A     36  31  83 N15G26      N/A  WCI  27
CHAMBERS         N/A     39  31  72 W9          N/A  WCI  33
EWING            N/A     39  33  80 N25G35      N/A  WCI  28
$$

...OBSERVATIONS IN SOUTHWEST NEBRASKA AND FAR NORTHEAST COLORADO...

CITY           SKY/WX    TMP DP  RH WIND       PRES   REMARKS
WRAY           FAIR      57   7  13 N29G37    30.30R
HOLYOKE        FAIR      54   9  16 NW21G40   30.29R
IMPERIAL       CLOUDY    52  10  18 N25G35    30.25R
OGALLALA       CLOUDY    51  14  23 N23G29    30.27R
NORTH PLATTE   SUNNY     50  24  36 N21G32    30.23S
MCCOOK         CLOUDY    52  19  27 N32G44    30.23R
LEXINGTON      SUNNY     49  25  38 N31G40    30.21R
STAPLETON        N/A     44  27  51 N7G18       N/A
GOTHENBURG       N/A     47  24  40 NW20        N/A
CALLAWAY         N/A     45  29  52 N26         N/A
$$

...OBSERVATIONS IN CENTRAL LINCOLN COUNTY AREA...

CITY           SKY/WX    TMP DP  RH WIND       PRES   REMARKS
N.P. AIRPORT   SUNNY     50  24  36 N21G32    30.23S
N.P. DOWNTOWN    N/A     47  26  43 NW13G20     N/A
N.P. SOUTHEAST   N/A     48  26  41 N15G29      N/A
N.P. HILLCREST   N/A     47  26  44 NW25G35     N/A
$$

...SOME OBSERVATIONS FROM AROUND THE REGION...

CITY           SKY/WX    TMP DP  RH WIND       PRES   REMARKS
DENVER         MOSUNNY   57   2  11 NE16      30.32S
GRAND JUNCTION SUNNY     47   3  16 CALM      30.47F
LARAMIE        CLOUDY    45   8  22 NW23G30   30.41R
CHEYENNE       SUNNY     50   9  19 N23G35    30.36R
CASPER         CLOUDY    43  18  36 SW13      30.42R
BISMARCK       SUNNY     35  24  64 N15       30.29R WCI  25
RAPID CITY     SUNNY     44  21  40 NW31G44   30.31R
PIERRE         CLOUDY    37  34  89 N20       30.26R WCI  27
SIOUX FALLS    CLOUDY    35  27  72 N31G39    30.11R WCI  22
OMAHA          CLOUDY    45  32  60 NW31G41   30.03R
GRAND ISLAND   CLOUDY    43  30  60 NW26G38   30.18R
SCOTTSBLUFF    CLOUDY    50  13  22 NW22G35   30.34R
KANSAS CITY    PTSUNNY   51  28  41 NW23G40   30.00R
HILL CITY      CLOUDY    57  15  19 N23G31    30.20R
WICHITA        PTSUNNY   63  16  16 NW23G31   30.09R
DODGE CITY     SUNNY     63  11  13 N25G45    30.18S
OKLAHOMA CITY  MOSUNNY   64  15  15 N15       30.11S
DALLAS         MOSUNNY   79  13   8 W13       30.09F
AMARILLO       SUNNY     64   7  10 NE17G26   30.24F
$$




USA.gov is the U.S. government's official web portal to all federal, state and local government web resources and services.